DW4937 Weather Reports


Display with metric or nautical units.
time (UTC)temp
F
wind
direction
speed
MPH
gust
MPH
rain 1hr
in
rain 24hr
in
rain mn
in
humidity
%
barometer
mb
20181015184808 55 261 13.0 24.0 0.00 0.00 0.00 80 1014.7
20181015184308 55 276 13.0 24.0 0.00 0.00 0.00 81 1014.7
20181015183808 55 275 13.0 24.0 0.00 0.00 0.00 81 1014.7
20181015183310 55 284 12.0 21.0 0.00 0.00 0.00 81 1014.6
20181015182809 55 265 12.0 21.0 0.00 0.00 0.00 81 1014.6
20181015182309 55 252 13.0 22.0 0.00 0.00 0.00 81 1014.6
20181015181808 55 254 12.0 24.0 0.00 0.00 0.00 80 1015.0
20181015181308 55 253 10.0 24.0 0.00 0.00 0.00 80 1014.7
20181015180808 55 283 11.0 24.0 0.00 0.00 0.00 80 1014.8
20181015180308 55 280 11.0 24.0 0.00 0.00 0.00 80 1014.6
20181015175808 55 316 10.0 21.0 0.00 0.00 0.00 80 1014.7
20181015175310 55 324 10.0 21.0 0.00 0.00 0.00 80 1014.6
20181015174809 56 257 10.0 21.0 0.00 0.00 0.00 79 1014.5
20181015174310 56 322 9.0 22.0 0.00 0.00 0.00 80 1014.5
20181015173809 56 283 8.0 22.0 0.00 0.00 0.00 80 1014.5
20181015173310 56 266 9.0 28.0 0.00 0.00 0.00 80 1014.5
20181015172809 56 19 13.0 28.0 0.00 0.00 0.00 81 1014.6
20181015172308 56 254 16.0 28.0 0.00 0.00 0.00 81 1014.6
20181015171806 56 287 16.0 28.0 0.00 0.00 0.00 81 1014.5
20181015171306 56 263 14.0 27.0 0.00 0.00 0.00 80 1014.6
20181015170806 56 252 12.0 24.0 0.00 0.00 0.00 80 1014.5
20181015170308 56 268 13.0 24.0 0.00 0.00 0.00 80 1014.4
20181015165807 56 286 13.0 24.0 0.00 0.00 0.00 80 1014.3
20181015165307 56 257 12.0 23.0 0.00 0.00 0.00 80 1014.3
20181015164808 56 248 12.0 24.0 0.00 0.00 0.00 80 1014.4
20181015164305 56 258 11.0 26.0 0.00 0.00 0.00 80 1014.3
20181015163805 56 262 11.0 26.0 0.00 0.00 0.00 79 1014.2
20181015163304 56 254 13.0 24.0 0.00 0.00 0.00 79 1014.3
20181015162806 56 281 14.0 24.0 0.00 0.00 0.00 79 1014.3
20181015162304 56 319 15.0 24.0 0.00 0.00 0.00 79 1014.2
20181015161804 56 258 14.0 24.0 0.00 0.00 0.00 78 1014.4
20181015161302 56 259 14.0 24.0 0.00 0.00 0.00 78 1014.4
20181015160804 56 270 15.0 24.0 0.00 0.00 0.00 78 1014.1
20181015160302 56 265 14.0 22.0 0.00 0.00 0.00 76 1014.2
20181015155802 56 260 13.0 22.0 0.00 0.00 0.00 76 1014.1
20181015155306 56 296 14.0 22.0 0.00 0.00 0.00 74 1014.1
20181015154802 56 287 14.0 22.0 0.00 0.00 0.00 73 1013.9
20181015154302 56 259 14.0 22.0 0.00 0.00 0.00 72 1013.8
20181015153803 56 271 14.0 24.0 0.00 0.00 0.00 72 1013.6
20181015153303 56 257 14.0 24.0 0.00 0.00 0.00 72 1013.6
20181015152803 56 298 13.0 24.0 0.00 0.00 0.00 72 1013.6
20181015152303 56 281 12.0 24.0 0.00 0.00 0.00 72 1013.4
20181015151802 56 310 9.0 18.0 0.00 0.00 0.00 72 1013.4
20181015151304 56 276 6.0 13.0 0.00 0.00 0.00 73 1013.4
20181015150803 56 234 7.0 14.0 0.00 0.00 0.00 73 1013.3
20181015150302 56 238 6.0 14.0 0.00 0.00 0.00 72 1013.2
20181015145802 56 252 6.0 14.0 0.00 0.00 0.00 73 1013.1
20181015145305 56 235 0.0 14.0 0.00 0.00 0.00 73 1013.1
20181015144801 56 0.0 0.0 0.00 0.00 0.00 74 1013.2
20181015144249 56 0.0 0.0 0.00 0.00 0.00 74 1013.1
20181015143707 56 0.0 0.0 0.00 0.00 0.00 74 1013.2
20181015143207 56 0.0 0.0 0.00 0.00 0.00 74 1013.2
20181015142701 56 0.0 0.0 0.00 0.00 0.00 75 1013.1
20181015142201 56 0.0 0.0 0.00 0.00 0.00 76 1013.1
20181015141701 56 0.0 0.0 0.00 0.00 0.00 76 1013.1
20181015141148 56 0.0 0.0 0.00 0.00 0.00 75 1013.0
20181015140635 56 0.0 0.0 0.00 0.00 0.00 75 1013.2
20181015140137 56 0.0 0.0 0.00 0.00 0.00 75 1013.1
20181015135602 56 0.0 0.0 0.00 0.00 0.00 75 1012.9
20181015135105 56 0.0 0.0 0.00 0.00 0.00 75 1012.8
20181015134602 56 0.0 0.0 0.00 0.00 0.00 74 1013.0
20181015134102 56 0.0 0.0 0.00 0.00 0.00 74 1012.9
20181015133601 56 0.0 0.0 0.00 0.00 0.00 74 1012.7
20181015133046 56 0.0 0.0 0.00 0.00 0.00 74 1012.6
20181015132532 56 0.0 0.0 0.00 0.00 0.00 74 1012.7
20181015132028 56 0.0 0.0 0.00 0.00 0.00 74 1012.7
20181015131515 56 0.0 0.0 0.00 0.00 0.00 74 1012.5
20181015130443 56 0.0 0.0 0.00 0.00 0.00 74 1012.5
20181015125901 56 0.0 0.0 0.00 0.00 0.00 74 1012.4
20181015125357 56 0.0 0.0 0.00 0.00 0.00 74 1012.4
20181015124825 56 0.0 0.0 0.00 0.00 0.00 73 1012.3
20181015124300 56 0.0 0.0 0.00 0.00 0.00 73 1012.3
20181015123800 56 0.0 0.0 0.00 0.00 0.00 73 1012.3
20181015123301 56 0.0 0.0 0.00 0.00 0.00 73 1012.1
20181015122801 56 0.0 0.0 0.00 0.00 0.00 73 1012.0
20181015122246 56 0.0 0.0 0.00 0.00 0.00 73 1012.0
20181015121746 55 0.0 0.0 0.00 0.00 0.00 72 1012.3
20181015121208 55 0.0 0.0 0.00 0.00 0.00 72 1012.2
20181015120707 55 0.0 0.0 0.00 0.00 0.00 72 1012.1
20181015120203 55 0.0 0.0 0.00 0.00 0.00 71 1012.2
20181015115653 55 0.0 0.0 0.00 0.00 0.00 71 1012.0
20181015115137 55 0.0 0.0 0.00 0.00 0.00 71 1012.1
20181015114628 55 0.0 0.0 0.00 0.00 0.00 70 1012.0
20181015114116 55 0.0 0.0 0.00 0.00 0.00 70 1011.9
20181015113602 55 0.0 0.0 0.00 0.00 0.00 70 1012.1
20181015113102 55 0.0 0.0 0.00 0.00 0.00 70 1012.1
20181015112602 55 0.0 0.0 0.00 0.00 0.00 70 1011.9
20181015112104 55 0.0 0.0 0.00 0.00 0.00 70 1011.9
20181015111600 55 0.0 0.0 0.00 0.00 0.00 70 1011.9
20181015111052 55 0.0 0.0 0.00 0.00 0.00 70 1011.9
20181015110527 55 0.0 0.0 0.00 0.00 0.00 70 1012.0
20181015110005 55 0.0 0.0 0.00 0.00 0.00 70 1012.2
20181015105501 55 0.0 0.0 0.00 0.00 0.00 70 1012.3
20181015105000 55 0.0 0.0 0.00 0.00 0.00 70 1012.1
20181015104455 55 0.0 0.0 0.00 0.00 0.00 70 1012.2
20181015103948 55 177 0.0 0.0 0.00 0.00 0.00 70 1012.1
20181015103411 55 177 0.0 0.0 0.00 0.00 0.00 70 1011.9
20181015102909 55 177 0.0 0.0 0.00 0.00 0.00 70 1011.8
20181015102406 55 177 0.0 0.0 0.00 0.00 0.00 70 1011.9
20181015101908 54 177 0.0 0.0 0.00 0.00 0.00 70 1011.9
20181015101408 54 168 0.0 0.0 0.00 0.00 0.00 70 1011.4
20181015100907 54 168 0.0 0.0 0.00 0.00 0.00 70 1011.7
20181015100406 54 167 0.0 0.0 0.00 0.00 0.00 70 1011.9
20181015095907 54 169 0.0 0.0 0.00 0.00 0.00 70 1012.2
20181015095406 54 167 0.0 0.0 0.00 0.00 0.00 70 1012.3
20181015094904 54 165 0.0 0.0 0.00 0.00 0.00 70 1012.1
20181015094405 54 144 0.0 0.0 0.00 0.00 0.00 70 1012.0
20181015093903 54 140 0.0 0.0 0.00 0.00 0.00 70 1011.7
20181015093404 54 140 0.0 0.0 0.00 0.00 0.00 70 1011.4
20181015092904 54 140 0.0 0.0 0.00 0.00 0.00 70 1011.5
20181015092404 54 140 0.0 0.0 0.00 0.00 0.00 70 1011.8
20181015091405 54 140 0.0 0.0 0.00 0.00 0.00 70 1011.8
20181015090906 54 140 0.0 0.0 0.00 0.00 0.00 70 1011.7
20181015090404 54 140 0.0 0.0 0.00 0.00 0.00 70 1011.9
20181015085905 54 140 0.0 0.0 0.00 0.00 0.00 70 1012.1
20181015085404 54 140 0.0 0.0 0.00 0.00 0.00 70 1012.2
20181015084904 54 140 0.0 0.0 0.00 0.00 0.00 70 1012.4
20181015084405 54 140 0.0 0.0 0.00 0.00 0.00 70 1012.4
20181015083906 54 140 0.0 0.0 0.00 0.00 0.00 70 1012.3
20181015083405 54 140 0.0 0.0 0.00 0.00 0.00 70 1012.3
20181015082903 54 140 0.0 0.0 0.00 0.00 0.00 71 1012.4
20181015082406 54 140 0.0 0.0 0.00 0.00 0.00 71 1012.3
20181015081903 54 140 0.0 0.0 0.00 0.00 0.00 71 1012.3
20181015081402 54 140 0.0 0.0 0.00 0.00 0.00 71 1012.4
20181015080902 54 139 0.0 0.0 0.00 0.00 0.00 71 1012.4
20181015080402 54 139 0.0 0.0 0.00 0.00 0.00 71 1012.4
20181015075904 54 139 0.0 0.0 0.00 0.00 0.00 72 1012.5
20181015075402 54 139 0.0 0.0 0.00 0.00 0.00 72 1012.7
20181015074904 54 139 0.0 0.0 0.00 0.00 0.00 72 1012.6
20181015074402 54 138 0.0 0.0 0.00 0.00 0.00 72 1012.5
20181015073902 54 139 0.0 0.0 0.00 0.00 0.00 72 1012.5
20181015073403 54 138 0.0 0.0 0.00 0.00 0.00 72 1012.4
20181015072903 54 138 0.0 0.0 0.00 0.00 0.00 72 1012.9
20181015072403 54 138 0.0 0.0 0.00 0.00 0.00 72 1013.0
20181015071903 54 138 0.0 0.0 0.00 0.00 0.00 72 1013.0
20181015071402 54 138 0.0 0.0 0.00 0.00 0.00 72 1012.8
20181015070903 54 138 0.0 0.0 0.00 0.00 0.00 72 1013.0
20181015070402 54 138 0.0 0.0 0.00 0.00 0.00 72 1013.1
20181015065900 54 138 0.0 0.0 0.00 0.00 0.00 72 1013.1
20181015065401 54 138 0.0 0.0 0.00 0.00 0.00 72 1013.3
20181015064900 54 139 0.0 0.0 0.00 0.00 0.00 72 1013.4
20181015064400 54 139 0.0 0.0 0.00 0.00 0.00 72 1013.4
20181015063902 54 139 0.0 0.0 0.00 0.00 0.00 72 1013.6
20181015063401 54 138 0.0 0.0 0.00 0.00 0.00 72 1013.6
20181015062900 54 139 0.0 0.0 0.00 0.00 0.00 73 1013.4
20181015062400 54 139 0.0 0.0 0.00 0.00 0.00 73 1013.4
20181015061900 54 138 0.0 0.0 0.00 0.00 0.00 74 1013.4
20181015061400 54 138 0.0 0.0 0.00 0.00 0.00 74 1013.4
20181015060858 54 138 0.0 0.0 0.00 0.00 0.00 75 1013.6
20181015060357 54 139 0.0 0.0 0.00 0.00 0.00 75 1013.6
20181015055858 54 138 0.0 0.0 0.00 0.00 0.00 76 1013.7
20181015055359 54 139 0.0 0.0 0.00 0.00 0.00 77 1013.8
20181015054858 54 138 0.0 0.0 0.00 0.00 0.00 78 1013.7
20181015054359 55 138 0.0 0.0 0.00 0.00 0.00 79 1013.7
20181015053859 55 138 0.0 0.0 0.00 0.00 0.00 80 1013.8
20181015053358 55 143 0.0 0.0 0.00 0.00 0.00 80 1013.9
20181015052859 55 143 0.0 0.0 0.00 0.00 0.00 81 1014.0
20181015052359 55 143 0.0 0.0 0.00 0.00 0.00 81 1014.0
20181015051856 55 143 0.0 0.0 0.00 0.00 0.00 81 1014.0
20181015051356 55 143 0.0 0.0 0.00 0.00 0.00 81 1014.0
20181015050855 55 143 0.0 0.0 0.00 0.00 0.00 81 1014.2
20181015050356 55 143 0.0 0.0 0.00 0.00 0.00 81 1014.3
20181015045856 55 143 0.0 0.0 0.00 0.00 0.00 81 1014.3
20181015045355 55 143 0.0 0.0 0.00 0.00 0.00 81 1014.4
20181015044856 55 143 0.0 0.0 0.00 0.00 0.00 81 1014.5
20181015044357 55 143 0.0 0.0 0.00 0.00 0.00 81 1014.5
20181015043858 55 143 0.0 0.0 0.00 0.00 0.00 81 1014.4
20181015043356 55 143 0.0 0.0 0.00 0.00 0.00 81 1014.5
20181015042854 55 145 0.0 0.0 0.00 0.00 0.00 80 1014.6
20181015042353 55 144 0.0 0.0 0.00 0.00 0.00 80 1014.6
20181015041854 55 142 0.0 0.0 0.00 0.00 0.00 80 1014.6
20181015041356 55 152 0.0 0.0 0.00 0.00 0.00 80 1014.7
20181015040855 55 115 0.0 0.0 0.00 0.00 0.00 80 1014.6
20181015040354 55 134 0.0 0.0 0.00 0.00 0.00 80 1014.6
20181015035852 55 136 0.0 0.0 0.00 0.00 0.00 80 1014.6
20181015035350 55 141 0.0 0.0 0.00 0.00 0.00 79 1014.6
20181015034850 55 130 0.0 0.0 0.00 0.00 0.00 79 1014.6
20181015034348 55 148 0.0 0.0 0.00 0.00 0.00 79 1014.7
20181015033848 55 136 0.0 0.0 0.00 0.00 0.00 79 1014.7
20181015033349 55 144 0.0 0.0 0.00 0.00 0.00 79 1014.8
20181015032848 55 136 0.0 0.0 0.00 0.00 0.00 79 1014.8
20181015032351 55 135 0.0 0.0 0.00 0.00 0.00 79 1014.8
20181015031850 55 142 0.0 0.0 0.00 0.00 0.00 79 1015.0
20181015031350 55 148 0.0 0.0 0.00 0.00 0.00 78 1015.1
20181015030850 54 147 0.0 0.0 0.00 0.00 0.00 78 1015.2
20181015030350 54 135 0.0 0.0 0.00 0.00 0.00 78 1015.3
20181015025850 54 133 0.0 0.0 0.00 0.00 0.00 78 1015.4
20181015025346 54 118 0.0 0.0 0.00 0.00 0.00 78 1015.5
20181015024848 54 146 0.0 0.0 0.00 0.00 0.00 78 1015.4
20181015024347 54 146 0.0 0.0 0.00 0.00 0.00 78 1015.4
20181015023847 54 146 0.0 0.0 0.00 0.00 0.00 78 1015.4
20181015023346 54 146 0.0 0.0 0.00 0.00 0.00 77 1015.4
20181015022845 54 145 0.0 0.0 0.00 0.00 0.00 77 1015.5
20181015022346 54 145 0.0 0.0 0.00 0.00 0.00 77 1015.5
20181015021845 54 150 0.0 0.0 0.00 0.00 0.00 77 1015.6
20181015021346 54 150 0.0 0.0 0.00 0.00 0.00 77 1015.7
20181015020844 54 150 0.0 0.0 0.00 0.00 0.00 77 1015.7
20181015020346 54 150 0.0 0.0 0.00 0.00 0.00 77 1015.7
20181015015845 54 150 0.0 0.0 0.00 0.00 0.00 77 1015.7
20181015015346 54 150 0.0 0.0 0.00 0.00 0.00 77 1015.8
20181015014846 54 150 0.0 0.0 0.00 0.00 0.00 76 1015.9
20181015014342 54 150 0.0 0.0 0.00 0.00 0.00 76 1015.9
20181015013844 54 150 0.0 0.0 0.00 0.00 0.00 76 1015.9
20181015013342 54 150 0.0 0.0 0.00 0.00 0.00 76 1015.9
20181015012844 54 150 0.0 0.0 0.00 0.00 0.00 76 1015.9
20181015012342 54 150 0.0 0.0 0.00 0.00 0.00 76 1016.0
20181015011844 54 150 0.0 0.0 0.00 0.00 0.00 76 1016.1
20181015011343 54 150 0.0 0.0 0.00 0.00 0.00 76 1016.1
20181015010844 54 150 0.0 0.0 0.00 0.00 0.00 76 1016.2
20181015010343 53 149 0.0 0.0 0.00 0.00 0.00 76 1016.3
20181015005854 53 148 0.0 0.0 0.00 0.00 0.00 76 1016.2
20181015005342 53 146 0.0 0.0 0.00 0.00 0.00 76 1016.4
20181015004844 53 146 0.0 0.0 0.00 0.00 0.00 77 1016.5
20181015004343 53 146 0.0 0.0 0.00 0.00 0.00 77 1016.3
20181015003844 53 146 0.0 0.0 0.00 0.00 0.00 76 1016.3
20181015003342 53 146 0.0 0.0 0.00 0.00 0.00 76 1016.4
20181015002844 53 146 0.0 0.0 0.00 0.00 0.00 76 1016.4
20181015002342 53 146 0.0 0.0 0.00 0.00 0.00 76 1016.4
20181015001850 53 146 0.0 0.0 0.00 0.00 0.00 75 1016.3
20181015001351 53 146 0.0 0.0 0.00 0.00 0.00 75 1016.3
20181015000845 53 146 0.0 0.0 0.00 0.00 0.00 75 1016.3
20181015000351 53 146 0.0 0.0 0.00 0.00 0.00 75 1016.4
20181014235854 53 146 0.0 0.0 0.00 0.00 0.00 74 1016.3
20181014235350 53 146 0.0 0.0 0.00 0.00 0.00 74 1016.4
20181014234844 54 146 0.0 0.0 0.00 0.00 0.00 73 1016.4
20181014234345 54 146 0.0 0.0 0.00 0.00 0.00 72 1016.4
20181014233845 54 146 0.0 0.0 0.00 0.00 0.00 71 1016.4
20181014233400 55 146 0.0 0.0 0.00 0.00 0.00 70 1016.5
20181014232849 55 146 0.0 0.0 0.00 0.00 0.00 69 1016.5
20181014232356 55 146 0.0 0.0 0.00 0.00 0.00 69 1016.5
20181014231842 56 146 0.0 0.0 0.00 0.00 0.00 68 1016.5
20181014231344 56 146 0.0 0.0 0.00 0.00 0.00 67 1016.5
20181014230842 56 146 0.0 0.0 0.00 0.00 0.00 66 1016.5
20181014230344 57 146 0.0 0.0 0.00 0.00 0.00 65 1016.4
20181014225842 57 146 0.0 0.0 0.00 0.00 0.00 64 1016.2
20181014225347 57 146 0.0 0.0 0.00 0.00 0.00 63 1016.3
20181014224842 58 146 0.0 0.0 0.00 0.00 0.00 62 1016.4
20181014224342 58 146 0.0 0.0 0.00 0.00 0.00 61 1016.4
20181014223844 58 146 0.0 0.0 0.00 0.00 0.00 60 1016.2
20181014223333 58 146 0.0 0.0 0.00 0.00 0.00 59 1016.3
20181014222833 59 146 0.0 0.0 0.00 0.00 0.00 59 1016.0
20181014222332 59 146 0.0 0.0 0.00 0.00 0.00 58 1016.3
20181014221832 59 146 0.0 0.0 0.00 0.00 0.00 58 1016.4
20181014221333 59 146 0.0 0.0 0.00 0.00 0.00 57 1016.4
20181014220832 60 147 0.0 0.0 0.00 0.00 0.00 56 1016.3
20181014220334 60 145 0.0 0.0 0.00 0.00 0.00 55 1016.2
20181014215833 60 142 0.0 0.0 0.00 0.00 0.00 55 1016.1
20181014215333 60 141 0.0 0.0 0.00 0.00 0.00 55 1016.1
20181014214833 60 160 0.0 0.0 0.00 0.00 0.00 54 1016.1
20181014214333 60 142 0.0 0.0 0.00 0.00 0.00 54 1016.1
20181014213833 60 142 0.0 0.0 0.00 0.00 0.00 53 1016.1
20181014213334 61 146 0.0 0.0 0.00 0.00 0.00 54 1016.2
20181014212832 61 145 0.0 0.0 0.00 0.00 0.00 55 1016.3
20181014212332 61 134 0.0 0.0 0.00 0.00 0.00 57 1016.3
20181014211832 61 123 0.0 0.0 0.00 0.00 0.00 57 1016.3
20181014211333 61 123 0.0 0.0 0.00 0.00 0.00 56 1016.4
20181014210833 61 123 0.0 0.0 0.00 0.00 0.00 56 1016.4
20181014210334 62 140 0.0 0.0 0.00 0.00 0.00 54 1016.5
20181014205833 62 138 0.0 0.0 0.00 0.00 0.00 52 1016.4
20181014205333 62 123 0.0 0.0 0.00 0.00 0.00 52 1016.4
20181014204832 62 123 0.0 0.0 0.00 0.00 0.00 54 1016.4
20181014204332 63 136 0.0 0.0 0.00 0.00 0.00 54 1016.5
20181014203834 63 126 0.0 0.0 0.00 0.00 0.00 54 1016.5
20181014203333 62 126 0.0 0.0 0.00 0.00 0.00 54 1016.5
20181014202833 62 135 0.0 0.0 0.00 0.00 0.00 53 1016.7
20181014202332 62 133 0.0 0.0 0.00 0.00 0.00 52 1016.9
20181014201833 62 137 0.0 0.0 0.00 0.00 0.00 53 1016.9
20181014201340 62 137 0.0 0.0 0.00 0.00 0.00 51 1016.9
20181014200842 62 136 0.0 0.0 0.00 0.00 0.00 49 1016.9
20181014200334 62 136 0.0 0.0 0.00 0.00 0.00 49 1017.0
20181014195841 62 169 0.0 0.0 0.00 0.00 0.00 49 1017.1
20181014195334 62 205 0.0 0.0 0.00 0.00 0.00 48 1017.2
20181014194833 62 192 0.0 0.0 0.00 0.00 0.00 49 1017.2
20181014194333 62 150 0.0 0.0 0.00 0.00 0.00 50 1017.2
20181014193834 61 149 0.0 0.0 0.00 0.00 0.00 51 1017.1
20181014193334 61 148 0.0 0.0 0.00 0.00 0.00 50 1017.2
20181014192833 61 145 0.0 0.0 0.00 0.00 0.00 48 1017.2
20181014192332 61 128 0.0 0.0 0.00 0.00 0.00 50 1017.2
20181014191833 61 130 0.0 0.0 0.00 0.00 0.00 51 1017.3
20181014191334 61 144 0.0 0.0 0.00 0.00 0.00 52 1017.3
20181014190832 61 157 0.0 0.0 0.00 0.00 0.00 53 1017.4
20181014190334 60 141 0.0 0.0 0.00 0.00 0.00 50 1017.4
20181014185833 61 155 0.0 0.0 0.00 0.00 0.00 51 1017.5
20181014185333 61 140 0.0 0.0 0.00 0.00 0.00 51 1017.6